Weather History for KRPD - October, 2012

Change the Weather History Date:

Thursday, October 4, 2012

  Actual Average Record
Temperature  
Mean Temperature 46 °F -  
Max Temperature 55 °F 59 °F 78 °F (2011)
Min Temperature 37 °F 38 °F 28 °F (1999)
Degree Days  
Heating Degree Days 19    
Moisture  
Dew Point 35 °F    
Average Humidity 59    
Maximum Humidity 71    
Minimum Humidity 43    
Precipitation  
Precipitation 0.00 in - - ()
Sea Level Pressure  
Sea Level Pressure 29.94 in    
Wind  
Wind Speed 12 mph (SW)    
Max Wind Speed 24 mph    
Max Gust Speed 34 mph    
Visibility 10 miles    
Events      
Averages and records for this station are not official NWS values.
T = Trace of Precipitation, MM = Missing Value Source: NWS Daily Summary

Daily Weather History Graph

Daily Weather History Graph

Search for Another Location

Airport or City:

Trip Planner

Search our weather history database for the weather conditions in past years. The results will help you decide how hot, cold, wet, or windy it might be!

Date:

Astronomy

Oct. 04, 2012 Rise Set
Actual Time 7:09 AM CDT 6:40 PM CDT
Civil Twilight 6:40 AM CDT 7:10 PM CDT
Nautical Twilight 6:05 AM CDT 7:44 PM CDT
Astronomical Twilight 5:31 AM CDT 8:18 PM CDT
Moon 9:03 PM CDT (10/4) 11:40 AM CDT (10/4)
Length of Visible Light 12h 30m
Length of Day
11h 31m
Waning Gibbous, 82% of the Moon is Illuminated
Oct 4
Waning Gibbous
Oct 8
Last Quarter
Oct 15
New
Oct 21
First Quarter
Oct 29
Full

Hourly Weather History & Observations

Time (CDT) Temp. Windchill Dew Point Humidity Pressure Visibility Wind Dir Wind Speed Gust Speed Precip Events Conditions
12:15 AM 55.4 °F - 42.8 °F 63% 29.92 in 10.0 mi ESE 6.9 mph - N/A   Clear
12:35 AM 53.6 °F - 42.8 °F 67% 29.91 in 10.0 mi ESE 5.8 mph - N/A   Clear
12:55 AM 53.6 °F - 42.8 °F 67% 29.91 in 10.0 mi ESE 6.9 mph - N/A   Clear
1:15 AM 55.4 °F - 42.8 °F 63% 29.90 in 10.0 mi ESE 6.9 mph - N/A   Clear
1:35 AM 55.4 °F - 42.8 °F 63% 29.90 in 10.0 mi ESE 8.1 mph - N/A   Clear
1:55 AM 55.4 °F - 42.8 °F 63% 29.89 in 10.0 mi SE 10.4 mph - N/A   Clear
2:15 AM 55.4 °F - 42.8 °F 63% 29.89 in 10.0 mi ESE 9.2 mph - N/A   Clear
2:35 AM 53.6 °F - 42.8 °F 67% 29.87 in 10.0 mi ESE 9.2 mph - N/A   Clear
2:55 AM 55.4 °F - 42.8 °F 63% 29.86 in 10.0 mi ESE 9.2 mph - N/A   Clear
3:15 AM 53.6 °F - 42.8 °F 67% 29.86 in 10.0 mi ESE 9.2 mph - N/A   Scattered Clouds
3:35 AM 53.6 °F - 42.8 °F 67% 29.85 in 10.0 mi ESE 6.9 mph - N/A   Scattered Clouds
3:55 AM 53.6 °F - 42.8 °F 67% 29.85 in 10.0 mi ESE 5.8 mph - N/A   Clear
4:15 AM 53.6 °F - 42.8 °F 67% 29.84 in 10.0 mi ESE 8.1 mph - N/A   Clear
4:35 AM 53.6 °F - 42.8 °F 67% 29.83 in 10.0 mi ESE 9.2 mph - N/A   Clear
4:55 AM 53.6 °F - 42.8 °F 67% 29.82 in 10.0 mi SE 8.1 mph - N/A   Clear
5:15 AM 53.6 °F - 42.8 °F 67% 29.82 in 10.0 mi ESE 9.2 mph - N/A   Clear
5:35 AM 53.6 °F - 42.8 °F 67% 29.81 in 10.0 mi SE 8.1 mph - N/A   Clear
5:55 AM 51.8 °F - 42.8 °F 71% 29.81 in 10.0 mi SE 8.1 mph - N/A   Clear
6:15 AM 51.8 °F - 42.8 °F 71% 29.81 in 10.0 mi SE 8.1 mph - N/A   Scattered Clouds
6:35 AM 51.8 °F - 42.8 °F 71% 29.81 in 10.0 mi SSE 8.1 mph - N/A   Mostly Cloudy
6:55 AM 51.8 °F - 42.8 °F 71% 29.81 in 10.0 mi South 8.1 mph - N/A   Scattered Clouds
7:15 AM 55.4 °F - 41.0 °F 58% 29.82 in 10.0 mi SW 18.4 mph 25.3 mph N/A   Clear
7:35 AM 51.8 °F - 39.2 °F 62% 29.85 in 10.0 mi SW 15.0 mph 23.0 mph N/A   Clear
7:55 AM 48.2 °F - 37.4 °F 66% 29.87 in 10.0 mi SW 20.7 mph 31.1 mph N/A   Mostly Cloudy
8:15 AM 48.2 °F - 37.4 °F 66% 29.86 in 10.0 mi SW 12.7 mph 21.9 mph N/A   Overcast
8:35 AM 48.2 °F - 37.4 °F 66% 29.87 in 10.0 mi SW 10.4 mph 24.2 mph N/A   Overcast
8:55 AM 48.2 °F - 37.4 °F 66% 29.87 in 10.0 mi SW 9.2 mph 16.1 mph N/A   Overcast
9:15 AM 48.2 °F - 37.4 °F 66% 29.88 in 10.0 mi SW 18.4 mph 24.2 mph N/A   Overcast
9:35 AM 48.2 °F - 37.4 °F 66% 29.87 in 10.0 mi SW 10.4 mph 18.4 mph N/A   Overcast
9:55 AM 50.0 °F - 37.4 °F 62% 29.88 in 10.0 mi SW 16.1 mph 20.7 mph N/A   Mostly Cloudy
10:15 AM 50.0 °F - 37.4 °F 62% 29.88 in 10.0 mi SW 17.3 mph 23.0 mph N/A   Overcast
10:35 AM 50.0 °F - 35.6 °F 58% 29.88 in 10.0 mi SW 17.3 mph 23.0 mph N/A   Overcast
10:55 AM 50.0 °F - 35.6 °F 58% 29.89 in 10.0 mi WSW 18.4 mph 25.3 mph N/A   Overcast
11:35 AM 50.0 °F - 33.8 °F 54% 29.90 in 10.0 mi WSW 16.1 mph 29.9 mph N/A   Scattered Clouds
11:55 AM 50.0 °F - 32.0 °F 50% 29.91 in 10.0 mi SW 16.1 mph 28.8 mph N/A   Scattered Clouds
12:15 PM 51.8 °F - 32.0 °F 47% 29.92 in 10.0 mi WSW 21.9 mph 27.6 mph N/A   Scattered Clouds
12:35 PM 50.0 °F - 32.0 °F 50% 29.94 in 10.0 mi WSW 19.6 mph 27.6 mph N/A   Mostly Cloudy
12:55 PM 50.0 °F - 32.0 °F 50% 29.94 in 10.0 mi WSW 24.2 mph 32.2 mph N/A   Mostly Cloudy
1:15 PM 50.0 °F - 32.0 °F 50% 29.94 in 10.0 mi WSW 18.4 mph 29.9 mph N/A   Mostly Cloudy
1:35 PM 50.0 °F - 32.0 °F 50% 29.95 in 10.0 mi WSW 23.0 mph 28.8 mph N/A   Mostly Cloudy
1:55 PM 50.0 °F - 32.0 °F 50% 29.95 in 10.0 mi SW 20.7 mph 26.5 mph N/A   Overcast
2:15 PM 50.0 °F - 32.0 °F 50% 29.96 in 10.0 mi WSW 24.2 mph 31.1 mph N/A   Overcast
2:35 PM 51.8 °F - 30.2 °F 44% 29.97 in 10.0 mi WSW 20.7 mph 27.6 mph N/A   Overcast
2:55 PM 50.0 °F - 30.2 °F 47% 29.97 in 10.0 mi West 17.3 mph 29.9 mph N/A   Mostly Cloudy
3:15 PM 50.0 °F - 30.2 °F 47% 29.98 in 10.0 mi WSW 20.7 mph 34.5 mph N/A   Mostly Cloudy
3:35 PM 50.0 °F - 30.2 °F 47% 29.98 in 10.0 mi WSW 18.4 mph 29.9 mph N/A   Scattered Clouds
3:55 PM 50.0 °F - 28.4 °F 43% 29.98 in 10.0 mi WSW 24.2 mph 31.1 mph N/A   Mostly Cloudy
4:15 PM 50.0 °F - 30.2 °F 47% 29.98 in 10.0 mi West 19.6 mph 28.8 mph N/A   Scattered Clouds
4:35 PM 50.0 °F - 30.2 °F 47% 29.99 in 10.0 mi West 18.4 mph 28.8 mph N/A   Scattered Clouds
5:15 PM 46.4 °F 39.2 °F 30.2 °F 53% 30.01 in 10.0 mi West 18.4 mph 33.4 mph N/A   Mostly Cloudy
5:35 PM 46.4 °F 38.5 °F 30.2 °F 53% 30.01 in 10.0 mi WSW 21.9 mph 27.6 mph N/A   Mostly Cloudy
5:55 PM 46.4 °F 39.0 °F 30.2 °F 53% 30.02 in 10.0 mi WSW 19.6 mph 26.5 mph N/A   Overcast
6:15 PM 44.6 °F 37.2 °F 28.4 °F 53% 30.02 in 10.0 mi West 17.3 mph 27.6 mph N/A   Overcast
6:35 PM 44.6 °F 38.1 °F 28.4 °F 53% 30.03 in 10.0 mi West 13.8 mph 23.0 mph N/A   Overcast
6:55 PM 44.6 °F 36.9 °F 28.4 °F 53% 30.03 in 10.0 mi WSW 18.4 mph 33.4 mph N/A   Overcast
7:15 PM 44.6 °F 38.1 °F 28.4 °F 53% 30.04 in 10.0 mi West 13.8 mph 26.5 mph N/A   Overcast
7:35 PM 44.6 °F 37.4 °F 28.4 °F 53% 30.05 in 10.0 mi West 16.1 mph 27.6 mph N/A   Overcast
7:55 PM 42.8 °F 34.5 °F 28.4 °F 57% 30.06 in 10.0 mi West 18.4 mph 32.2 mph N/A   Overcast
8:15 PM 42.8 °F 36.2 °F 28.4 °F 57% 30.05 in 10.0 mi West 12.7 mph 25.3 mph N/A   Overcast
8:35 PM 42.8 °F 34.3 °F 28.4 °F 57% 30.06 in 10.0 mi West 19.6 mph 25.3 mph N/A   Overcast
8:55 PM 41.0 °F 31.9 °F 26.6 °F 57% 30.06 in 10.0 mi West 19.6 mph 28.8 mph N/A   Overcast
9:15 PM 41.0 °F 32.5 °F 26.6 °F 57% 30.07 in 10.0 mi West 17.3 mph 25.3 mph N/A   Mostly Cloudy
9:35 PM 41.0 °F 33.9 °F 28.4 °F 61% 30.06 in 10.0 mi West 12.7 mph 18.4 mph N/A   Mostly Cloudy
9:55 PM 41.0 °F 33.5 °F 28.4 °F 61% 30.07 in 10.0 mi West 13.8 mph 24.2 mph N/A   Mostly Cloudy
10:15 PM 41.0 °F 32.8 °F 28.4 °F 61% 30.08 in 10.0 mi West 16.1 mph 34.5 mph N/A   Overcast
10:35 PM 39.2 °F 30.5 °F 28.4 °F 65% 30.09 in 10.0 mi West 16.1 mph 25.3 mph N/A   Overcast
10:55 PM 39.2 °F 30.2 °F 28.4 °F 65% 30.09 in 10.0 mi West 17.3 mph 24.2 mph N/A   Overcast
11:15 PM 37.4 °F 27.8 °F 28.4 °F 70% 30.09 in 10.0 mi West 17.3 mph 21.9 mph N/A   Mostly Cloudy
11:35 PM 39.2 °F 30.8 °F 28.4 °F 65% 30.09 in 10.0 mi WSW 15.0 mph 25.3 mph N/A   Mostly Cloudy
11:55 PM 41.0 °F 33.1 °F 28.4 °F 61% 30.09 in 10.0 mi West 15.0 mph 27.6 mph N/A   Overcast